Time,TemperatureF,DewpointF,PressureIn,WindDirection,WindDirectionDegrees,WindSpeedMPH,WindSpeedGustMPH,Humidity,HourlyPrecipIn,Conditions,Clouds,dailyrainin,SoftwareType,DateUTC
2013-03-11 00:03:00,47.4,41.2,30.38,ENE,65,0.0,5.0,79,0.00,,,0.00,Wunderground v.1.13,2013-03-11 07:03:00,
2013-03-11 00:13:00,47.7,40.8,30.38,ENE,73,1.0,1.0,77,0.00,,,0.00,Wunderground v.1.13,2013-03-11 07:13:00,
2013-03-11 00:23:00,47.3,41.1,30.37,ENE,73,0.0,5.0,79,0.00,,,0.00,Wunderground v.1.13,2013-03-11 07:23:00,
2013-03-11 00:28:00,47.1,40.9,30.37,ENE,73,0.0,5.0,79,0.00,,,0.00,Wunderground v.1.13,2013-03-11 07:28:00,
2013-03-11 00:38:00,47.4,41.2,30.37,ENE,73,0.0,5.0,79,0.00,,,0.00,Wunderground v.1.13,2013-03-11 07:38:00,
2013-03-11 00:43:00,47.4,40.9,30.37,ENE,73,0.0,5.0,78,0.00,,,0.00,Wunderground v.1.13,2013-03-11 07:43:00,
2013-03-11 00:53:00,47.0,41.1,30.36,ENE,73,1.0,5.0,80,0.00,,,0.00,Wunderground v.1.13,2013-03-11 07:53:00,
2013-03-11 00:58:00,46.7,40.9,30.36,ENE,73,1.0,1.0,80,0.00,,,0.00,Wunderground v.1.13,2013-03-11 07:58:00,
2013-03-11 01:03:00,46.4,40.9,30.36,ENE,73,0.0,2.0,81,0.00,,,0.00,Wunderground v.1.13,2013-03-11 08:03:00,
2013-03-11 01:13:00,46.0,40.8,30.36,ENE,63,1.0,1.0,82,0.00,,,0.00,Wunderground v.1.13,2013-03-11 08:13:00,
2013-03-11 01:18:00,45.8,40.6,30.36,East,85,2.0,4.0,82,0.00,,,0.00,Wunderground v.1.13,2013-03-11 08:18:00,
2013-03-11 01:23:00,45.8,40.6,30.36,ENE,72,4.0,5.0,82,0.00,,,0.00,Wunderground v.1.13,2013-03-11 08:23:00,
2013-03-11 01:28:00,45.7,40.5,30.35,ENE,74,6.0,6.0,82,0.00,,,0.00,Wunderground v.1.13,2013-03-11 08:28:00,
2013-03-11 01:38:00,45.8,40.6,30.35,ENE,75,5.0,5.0,82,0.00,,,0.00,Wunderground v.1.13,2013-03-11 08:38:00,
2013-03-11 01:48:00,45.8,40.6,30.35,ENE,77,4.0,4.0,82,0.00,,,0.00,Wunderground v.1.13,2013-03-11 08:48:00,
2013-03-11 01:58:00,45.8,40.6,30.35,ENE,77,4.0,7.0,82,0.00,,,0.00,Wunderground v.1.13,2013-03-11 08:58:00,
2013-03-11 02:03:00,45.8,40.3,30.35,ENE,77,4.0,4.0,81,0.00,,,0.00,Wunderground v.1.13,2013-03-11 09:03:00,
2013-03-11 02:13:00,45.8,40.3,30.35,ENE,77,2.0,4.0,81,0.00,,,0.00,Wunderground v.1.13,2013-03-11 09:13:00,
2013-03-11 02:23:00,45.8,40.3,30.36,ENE,77,1.0,1.0,81,0.00,,,0.00,Wunderground v.1.13,2013-03-11 09:23:00,
2013-03-11 02:28:00,45.8,40.3,30.36,ENE,77,1.0,1.0,81,0.00,,,0.00,Wunderground v.1.13,2013-03-11 09:28:00,
2013-03-11 02:38:00,46.1,40.3,30.35,ENE,77,1.0,1.0,80,0.00,,,0.00,Wunderground v.1.13,2013-03-11 09:38:00,
2013-03-11 02:48:00,46.4,40.2,30.35,ENE,77,0.0,4.0,79,0.00,,,0.00,Wunderground v.1.13,2013-03-11 09:48:00,
2013-03-11 02:58:00,46.7,39.9,30.35,ENE,77,0.0,4.0,77,0.00,,,0.00,Wunderground v.1.13,2013-03-11 09:58:00,
2013-03-11 03:08:00,46.8,38.9,30.35,ENE,77,0.0,4.0,74,0.00,,,0.00,Wunderground v.1.13,2013-03-11 10:08:00,
2013-03-11 03:18:00,46.8,39.6,30.35,ENE,77,0.0,4.0,76,0.00,,,0.00,Wunderground v.1.13,2013-03-11 10:18:00,
2013-03-11 03:28:00,46.7,39.5,30.35,ENE,77,0.0,4.0,76,0.00,,,0.00,Wunderground v.1.13,2013-03-11 10:28:00,
2013-03-11 03:33:00,46.7,39.5,30.35,ENE,77,1.0,1.0,76,0.00,,,0.00,Wunderground v.1.13,2013-03-11 10:33:00,
2013-03-11 03:38:00,46.7,39.2,30.35,ENE,77,1.0,4.0,75,0.00,,,0.00,Wunderground v.1.13,2013-03-11 10:38:00,
2013-03-11 03:48:00,46.7,38.9,30.35,ENE,77,0.0,4.0,74,0.00,,,0.00,Wunderground v.1.13,2013-03-11 10:48:00,
2013-03-11 03:53:00,46.7,38.9,30.35,ENE,77,0.0,4.0,74,0.00,,,0.00,Wunderground v.1.13,2013-03-11 10:53:00,
2013-03-11 03:58:00,46.5,38.7,30.35,ENE,77,1.0,4.0,74,0.00,,,0.00,Wunderground v.1.13,2013-03-11 10:58:00,
2013-03-11 04:08:00,45.7,37.9,30.35,ENE,76,1.0,4.0,74,0.00,,,0.00,Wunderground v.1.13,2013-03-11 11:08:00,
2013-03-11 04:18:00,45.4,38.3,30.37,NE,44,2.0,2.0,76,0.00,,,0.00,Wunderground v.1.13,2013-03-11 11:18:00,
2013-03-11 04:23:00,45.5,38.7,30.36,NE,44,2.0,4.0,77,0.00,,,0.00,Wunderground v.1.13,2013-03-11 11:23:00,
2013-03-11 04:33:00,45.5,38.4,30.36,NE,44,2.0,4.0,76,0.00,,,0.00,Wunderground v.1.13,2013-03-11 11:33:00,
2013-03-11 04:38:00,45.5,38.7,30.36,ENE,75,1.0,1.0,77,0.00,,,0.00,Wunderground v.1.13,2013-03-11 11:38:00,
2013-03-11 04:43:00,45.7,38.6,30.37,ENE,75,1.0,1.0,76,0.00,,,0.00,Wunderground v.1.13,2013-03-11 11:43:00,
2013-03-11 04:53:00,45.7,38.2,30.36,ENE,75,2.0,2.0,75,0.00,,,0.00,Wunderground v.1.13,2013-03-11 11:53:00,
2013-03-11 05:03:00,45.2,37.4,30.37,ENE,74,2.0,4.0,74,0.00,,,0.00,Wunderground v.1.13,2013-03-11 12:03:00,
2013-03-11 05:08:00,44.6,37.2,30.37,ENE,74,1.0,4.0,75,0.00,,,0.00,Wunderground v.1.13,2013-03-11 12:08:00,
2013-03-11 05:18:00,43.9,37.2,30.37,ENE,76,2.0,4.0,77,0.00,,,0.00,Wunderground v.1.13,2013-03-11 12:18:00,
2013-03-11 05:28:00,44.1,38.0,30.37,ENE,76,3.0,5.0,79,0.00,,,0.00,Wunderground v.1.13,2013-03-11 12:28:00,
2013-03-11 05:33:00,44.2,37.4,30.37,ENE,75,4.0,4.0,77,0.00,,,0.00,Wunderground v.1.13,2013-03-11 12:33:00,
2013-03-11 05:43:00,43.9,37.2,30.36,ENE,78,6.0,6.0,77,0.00,,,0.00,Wunderground v.1.13,2013-03-11 12:43:00,
2013-03-11 05:53:00,43.6,36.9,30.36,ENE,76,6.0,6.0,77,0.00,,,0.00,Wunderground v.1.13,2013-03-11 12:53:00,
2013-03-11 06:03:00,43.8,37.1,30.36,ENE,77,6.0,6.0,77,0.00,,,0.00,Wunderground v.1.13,2013-03-11 13:03:00,
2013-03-11 06:08:00,43.9,37.2,30.36,ENE,76,6.0,6.0,77,0.00,,,0.00,Wunderground v.1.13,2013-03-11 13:08:00,
2013-03-11 06:18:00,44.1,37.0,30.36,ENE,75,5.0,9.0,76,0.00,,,0.00,Wunderground v.1.13,2013-03-11 13:18:00,
2013-03-11 06:23:00,44.3,37.2,30.36,ENE,74,6.0,6.0,76,0.00,,,0.00,Wunderground v.1.13,2013-03-11 13:23:00,
2013-03-11 06:33:00,44.5,37.1,30.37,ENE,76,4.0,4.0,75,0.00,,,0.00,Wunderground v.1.13,2013-03-11 13:33:00,
2013-03-11 06:38:00,44.6,36.8,30.37,ENE,76,3.0,3.0,74,0.00,,,0.00,Wunderground v.1.13,2013-03-11 13:38:00,
2013-03-11 06:43:00,44.6,36.5,30.37,ENE,76,3.0,5.0,73,0.00,,,0.00,Wunderground v.1.13,2013-03-11 13:43:00,
2013-03-11 06:48:00,44.6,36.5,30.37,ENE,76,4.0,4.0,73,0.00,,,0.00,Wunderground v.1.13,2013-03-11 13:48:00,
2013-03-11 06:58:00,45.1,35.5,30.37,ENE,76,4.0,4.0,69,0.00,,,0.00,Wunderground v.1.13,2013-03-11 13:58:00,
2013-03-11 07:03:00,45.4,35.1,30.37,ENE,76,4.0,5.0,67,0.00,,,0.00,Wunderground v.1.13,2013-03-11 14:03:00,
2013-03-11 07:13:00,45.5,35.9,30.36,ENE,74,4.0,4.0,69,0.00,,,0.00,Wunderground v.1.13,2013-03-11 14:13:00,
2013-03-11 07:23:00,45.2,35.6,30.37,ENE,74,3.0,4.0,69,0.00,,,0.00,Wunderground v.1.13,2013-03-11 14:23:00,
2013-03-11 07:28:00,45.4,35.5,30.37,ENE,74,3.0,3.0,68,0.00,,,0.00,Wunderground v.1.13,2013-03-11 14:28:00,
2013-03-11 07:38:00,45.4,36.5,30.37,ENE,74,1.0,4.0,71,0.00,,,0.00,Wunderground v.1.13,2013-03-11 14:38:00,
2013-03-11 07:43:00,45.8,36.6,30.36,ENE,74,1.0,4.0,70,0.00,,,0.00,Wunderground v.1.13,2013-03-11 14:43:00,
2013-03-11 07:53:00,47.0,37.4,30.36,ENE,74,1.0,1.0,69,0.00,,,0.00,Wunderground v.1.13,2013-03-11 14:53:00,
2013-03-11 08:03:00,47.4,37.0,30.37,ENE,74,1.0,1.0,67,0.00,,,0.00,Wunderground v.1.13,2013-03-11 15:03:00,
2013-03-11 08:08:00,47.7,36.1,30.36,NE,41,2.0,4.0,64,0.00,,,0.00,Wunderground v.1.13,2013-03-11 15:08:00,
2013-03-11 08:13:00,48.2,36.6,30.36,ENE,72,2.0,4.0,64,0.00,,,0.00,Wunderground v.1.13,2013-03-11 15:13:00,
2013-03-11 08:18:00,48.6,36.2,30.36,ENE,63,2.0,4.0,62,0.00,,,0.00,Wunderground v.1.13,2013-03-11 15:18:00,
2013-03-11 08:28:00,50.2,36.8,30.36,ENE,65,2.0,4.0,60,0.00,,,0.00,Wunderground v.1.13,2013-03-11 15:28:00,
2013-03-11 08:33:00,50.5,36.7,30.36,ENE,65,2.0,2.0,59,0.00,,,0.00,Wunderground v.1.13,2013-03-11 15:33:00,
2013-03-11 08:43:00,51.4,38.4,30.36,ENE,65,1.0,1.0,61,0.00,,,0.00,Wunderground v.1.13,2013-03-11 15:43:00,
2013-03-11 08:53:00,51.6,35.9,30.36,ENE,63,0.0,4.0,55,0.00,,,0.00,Wunderground v.1.13,2013-03-11 15:53:00,
2013-03-11 08:58:00,52.0,37.2,30.37,ENE,63,0.0,4.0,57,0.00,,,0.00,Wunderground v.1.13,2013-03-11 15:58:00,
2013-03-11 09:03:00,51.9,36.7,30.36,ENE,63,0.0,4.0,56,0.00,,,0.00,Wunderground v.1.13,2013-03-11 16:03:00,
2013-03-11 09:13:00,52.5,38.1,30.36,ENE,63,0.0,4.0,58,0.00,,,0.00,Wunderground v.1.13,2013-03-11 16:13:00,
2013-03-11 09:18:00,52.6,37.3,30.36,ENE,63,0.0,4.0,56,0.00,,,0.00,Wunderground v.1.13,2013-03-11 16:18:00,
2013-03-11 09:28:00,52.8,38.4,30.36,ENE,63,0.0,4.0,58,0.00,,,0.00,Wunderground v.1.13,2013-03-11 16:28:00,
2013-03-11 09:33:00,53.2,37.9,30.37,ENE,63,0.0,4.0,56,0.00,,,0.00,Wunderground v.1.13,2013-03-11 16:33:00,
2013-03-11 09:43:00,53.8,38.0,30.37,ENE,63,0.0,4.0,55,0.00,,,0.00,Wunderground v.1.13,2013-03-11 16:43:00,
2013-03-11 09:48:00,54.1,37.8,30.37,ENE,63,0.0,4.0,54,0.00,,,0.00,Wunderground v.1.13,2013-03-11 16:48:00,
2013-03-11 09:53:00,54.2,37.9,30.36,ENE,63,0.0,4.0,54,0.00,,,0.00,Wunderground v.1.13,2013-03-11 16:53:00,
2013-03-11 09:58:00,54.7,37.9,30.36,ENE,63,0.0,4.0,53,0.00,,,0.00,Wunderground v.1.13,2013-03-11 16:58:00,
2013-03-11 10:08:00,55.6,39.2,30.36,ENE,63,0.0,4.0,54,0.00,,,0.00,Wunderground v.1.13,2013-03-11 17:08:00,
2013-03-11 10:13:00,56.2,38.8,30.36,ENE,63,0.0,4.0,52,0.00,,,0.00,Wunderground v.1.13,2013-03-11 17:13:00,
2013-03-11 10:18:00,56.7,38.8,30.35,ENE,63,0.0,4.0,51,0.00,,,0.00,Wunderground v.1.13,2013-03-11 17:18:00,
2013-03-11 10:28:00,56.9,38.9,30.35,ENE,63,0.0,4.0,51,0.00,,,0.00,Wunderground v.1.13,2013-03-11 17:28:00,
2013-03-11 10:38:00,57.5,39.0,30.35,ENE,63,0.0,4.0,50,0.00,,,0.00,Wunderground v.1.13,2013-03-11 17:38:00,
2013-03-11 10:43:00,57.6,40.1,30.34,ENE,63,0.0,4.0,52,0.00,,,0.00,Wunderground v.1.13,2013-03-11 17:43:00,
2013-03-11 10:48:00,57.3,39.8,30.34,WNW,296,0.0,4.0,52,0.00,,,0.00,Wunderground v.1.13,2013-03-11 17:48:00,
2013-03-11 10:53:00,57.3,40.3,30.34,WNW,292,1.0,4.0,53,0.00,,,0.00,Wunderground v.1.13,2013-03-11 17:53:00,
2013-03-11 11:03:00,58.3,40.7,30.34,WNW,286,0.0,4.0,52,0.00,,,0.00,Wunderground v.1.13,2013-03-11 18:03:00,
2013-03-11 11:13:00,59.2,41.1,30.33,WNW,294,0.0,4.0,51,0.00,,,0.00,Wunderground v.1.13,2013-03-11 18:13:00,
2013-03-11 11:18:00,59.2,40.6,30.34,NW,316,0.0,4.0,50,0.00,,,0.00,Wunderground v.1.13,2013-03-11 18:18:00,
2013-03-11 11:23:00,59.0,40.9,30.34,WNW,296,1.0,1.0,51,0.00,,,0.00,Wunderground v.1.13,2013-03-11 18:23:00,
2013-03-11 11:33:00,59.3,39.6,30.33,NW,311,1.0,1.0,48,0.00,,,0.00,Wunderground v.1.13,2013-03-11 18:33:00,
2013-03-11 11:38:00,58.7,39.6,30.34,West,275,2.0,4.0,49,0.00,,,0.00,Wunderground v.1.13,2013-03-11 18:38:00,
2013-03-11 11:43:00,59.5,39.8,30.33,West,266,2.0,2.0,48,0.00,,,0.00,Wunderground v.1.13,2013-03-11 18:43:00,
2013-03-11 11:53:00,60.5,41.2,30.32,West,273,1.0,4.0,49,0.00,,,0.00,Wunderground v.1.13,2013-03-11 18:53:00,
2013-03-11 12:03:00,60.1,39.8,30.33,West,278,3.0,3.0,47,0.00,,,0.00,Wunderground v.1.13,2013-03-11 19:03:00,
2013-03-11 12:13:00,61.0,41.2,30.32,SSW,204,1.0,1.0,48,0.00,,,0.00,Wunderground v.1.13,2013-03-11 19:13:00,
2013-03-11 12:23:00,62.3,42.3,30.32,WSW,252,1.0,1.0,48,0.00,,,0.00,Wunderground v.1.13,2013-03-11 19:23:00,
2013-03-11 12:28:00,62.7,42.2,30.32,WSW,237,0.0,4.0,47,0.00,,,0.00,Wunderground v.1.13,2013-03-11 19:28:00,
2013-03-11 12:38:00,62.6,42.1,30.31,WNW,292,1.0,1.0,47,0.00,,,0.00,Wunderground v.1.13,2013-03-11 19:38:00,
2013-03-11 12:48:00,64.3,41.9,30.31,West,265,0.0,4.0,44,0.00,,,0.00,Wunderground v.1.13,2013-03-11 19:48:00,
2013-03-11 12:58:00,64.0,41.6,30.30,West,259,1.0,4.0,44,0.00,,,0.00,Wunderground v.1.13,2013-03-11 19:58:00,
2013-03-11 13:03:00,63.7,40.8,30.30,NW,318,2.0,2.0,43,0.00,,,0.00,Wunderground v.1.13,2013-03-11 20:03:00,
2013-03-11 13:13:00,64.8,41.8,30.30,West,263,1.0,1.0,43,0.00,,,0.00,Wunderground v.1.13,2013-03-11 20:13:00,
2013-03-11 13:18:00,65.2,42.7,30.30,SW,234,0.0,0.0,44,0.00,,,0.00,Wunderground v.1.13,2013-03-11 20:18:00,
2013-03-11 13:23:00,65.6,41.9,30.29,West,274,0.0,1.0,42,0.00,,,0.00,Wunderground v.1.13,2013-03-11 20:23:00,
2013-03-11 13:33:00,66.1,42.3,30.28,SW,228,1.0,1.0,42,0.00,,,0.00,Wunderground v.1.13,2013-03-11 20:33:00,
2013-03-11 13:42:00,65.6,40.6,30.28,SW,228,1.0,3.0,40,0.00,,,0.00,Wunderground v.1.13,2013-03-11 20:42:00,
2013-03-11 13:48:00,65.3,41.0,30.27,West,271,1.0,1.0,41,0.00,,,0.00,Wunderground v.1.13,2013-03-11 20:48:00,
2013-03-11 13:53:00,66.1,42.3,30.27,NE,36,1.0,1.0,42,0.00,,,0.00,Wunderground v.1.13,2013-03-11 20:53:00,
2013-03-11 13:58:00,66.8,42.3,30.27,SSW,207,0.0,6.0,41,0.00,,,0.00,Wunderground v.1.13,2013-03-11 20:58:00,
2013-03-11 14:08:00,66.9,44.3,30.26,WSW,251,1.0,6.0,44,0.00,,,0.00,Wunderground v.1.13,2013-03-11 21:08:00,
2013-03-11 14:13:00,66.6,46.3,30.26,SW,219,2.0,2.0,48,0.00,,,0.00,Wunderground v.1.13,2013-03-11 21:13:00,
2013-03-11 14:23:00,67.4,42.9,30.25,SSW,211,1.0,6.0,41,0.00,,,0.00,Wunderground v.1.13,2013-03-11 21:23:00,
2013-03-11 14:33:00,67.4,45.3,30.25,SSE,150,1.0,6.0,45,0.00,,,0.00,Wunderground v.1.13,2013-03-11 21:33:00,
2013-03-11 14:43:00,66.4,42.0,30.25,SSW,193,1.0,6.0,41,0.00,,,0.00,Wunderground v.1.13,2013-03-11 21:43:00,
2013-03-11 14:48:00,66.6,42.8,30.25,WSW,251,1.0,1.0,42,0.00,,,0.00,Wunderground v.1.13,2013-03-11 21:48:00,
2013-03-11 14:58:00,67.3,43.4,30.25,West,270,1.0,6.0,42,0.00,,,0.00,Wunderground v.1.13,2013-03-11 21:58:00,
2013-03-11 15:08:00,67.4,43.5,30.25,South,190,0.0,6.0,42,0.00,,,0.00,Wunderground v.1.13,2013-03-11 22:08:00,
2013-03-11 15:13:00,66.8,43.0,30.25,WNW,294,1.0,1.0,42,0.00,,,0.00,Wunderground v.1.13,2013-03-11 22:13:00,
2013-03-11 15:23:00,66.6,42.8,30.25,WNW,294,0.0,6.0,42,0.00,,,0.00,Wunderground v.1.13,2013-03-11 22:23:00,
2013-03-11 15:28:00,66.8,43.0,30.25,WNW,294,0.0,6.0,42,0.00,,,0.00,Wunderground v.1.13,2013-03-11 22:28:00,
2013-03-11 15:38:00,66.9,42.4,30.25,WSW,238,1.0,1.0,41,0.00,,,0.00,Wunderground v.1.13,2013-03-11 22:38:00,
2013-03-11 15:48:00,65.2,42.7,30.25,WNW,284,1.0,1.0,44,0.00,,,0.00,Wunderground v.1.13,2013-03-11 22:48:00,
2013-03-11 15:53:00,65.6,42.5,30.25,WSW,241,1.0,6.0,43,0.00,,,0.00,Wunderground v.1.13,2013-03-11 22:53:00,
2013-03-11 15:58:00,64.8,42.4,30.25,West,281,1.0,6.0,44,0.00,,,0.00,Wunderground v.1.13,2013-03-11 22:58:00,
2013-03-11 16:08:00,65.5,44.2,30.24,NE,36,0.0,6.0,46,0.00,,,0.00,Wunderground v.1.13,2013-03-11 23:08:00,
2013-03-11 16:18:00,64.8,42.4,30.25,SSW,209,1.0,1.0,44,0.00,,,0.00,Wunderground v.1.13,2013-03-11 23:18:00,
2013-03-11 16:23:00,64.7,43.4,30.25,SW,225,1.0,1.0,46,0.00,,,0.00,Wunderground v.1.13,2013-03-11 23:23:00,
2013-03-11 16:28:00,64.2,42.4,30.25,South,185,0.0,6.0,45,0.00,,,0.00,Wunderground v.1.13,2013-03-11 23:28:00,
2013-03-11 16:33:00,63.7,43.1,30.25,South,185,0.0,6.0,47,0.00,,,0.00,Wunderground v.1.13,2013-03-11 23:33:00,
2013-03-11 16:43:00,64.0,42.8,30.25,SW,219,1.0,1.0,46,0.00,,,0.00,Wunderground v.1.13,2013-03-11 23:43:00,
2013-03-11 16:53:00,64.0,42.8,30.25,WNW,294,0.0,6.0,46,0.00,,,0.00,Wunderground v.1.13,2013-03-11 23:53:00,
2013-03-11 16:58:00,63.7,43.1,30.24,WNW,294,0.0,6.0,47,0.00,,,0.00,Wunderground v.1.13,2013-03-11 23:58:00,
2013-03-11 17:08:00,63.2,42.6,30.25,SSE,161,0.0,6.0,47,0.00,,,0.00,Wunderground v.1.13,2013-03-12 00:08:00,
2013-03-11 17:18:00,62.6,42.1,30.25,SSW,205,0.0,6.0,47,0.00,,,0.00,Wunderground v.1.13,2013-03-12 00:18:00,
2013-03-11 17:23:00,62.1,41.6,30.24,SSW,197,0.0,6.0,47,0.00,,,0.00,Wunderground v.1.13,2013-03-12 00:23:00,
2013-03-11 17:28:00,62.1,41.6,30.24,SSW,209,1.0,1.0,47,0.00,,,0.00,Wunderground v.1.13,2013-03-12 00:28:00,
2013-03-11 17:38:00,62.4,41.9,30.24,WSW,241,0.0,6.0,47,0.00,,,0.00,Wunderground v.1.13,2013-03-12 00:38:00,
2013-03-11 17:43:00,62.6,42.6,30.24,West,263,0.0,6.0,48,0.00,,,0.00,Wunderground v.1.13,2013-03-12 00:43:00,
2013-03-11 17:48:00,62.4,42.4,30.24,West,263,0.0,6.0,48,0.00,,,0.00,Wunderground v.1.13,2013-03-12 00:48:00,
2013-03-11 17:58:00,62.0,41.5,30.24,SW,234,0.0,6.0,47,0.00,,,0.00,Wunderground v.1.13,2013-03-12 00:58:00,
2013-03-11 18:03:00,61.6,41.7,30.24,SSW,200,0.0,6.0,48,0.00,,,0.00,Wunderground v.1.13,2013-03-12 01:03:00,
2013-03-11 18:13:00,61.2,42.4,30.24,SSW,200,0.0,6.0,50,0.00,,,0.00,Wunderground v.1.13,2013-03-12 01:13:00,
2013-03-11 18:23:00,60.7,41.9,30.24,SSW,206,0.0,6.0,50,0.00,,,0.00,Wunderground v.1.13,2013-03-12 01:23:00,
2013-03-11 18:28:00,60.7,41.9,30.24,SW,215,0.0,6.0,50,0.00,,,0.00,Wunderground v.1.13,2013-03-12 01:28:00,
2013-03-11 18:33:00,60.4,41.7,30.24,SW,215,0.0,6.0,50,0.00,,,0.00,Wunderground v.1.13,2013-03-12 01:33:00,
2013-03-11 18:43:00,59.8,42.1,30.24,SW,215,0.0,6.0,52,0.00,,,0.00,Wunderground v.1.13,2013-03-12 01:43:00,
2013-03-11 18:53:00,58.7,42.6,30.25,SW,215,0.0,6.0,55,0.00,,,0.00,Wunderground v.1.13,2013-03-12 01:53:00,
2013-03-11 18:58:00,58.1,42.5,30.25,SW,215,0.0,6.0,56,0.00,,,0.00,Wunderground v.1.13,2013-03-12 01:58:00,
2013-03-11 19:08:00,57.0,41.9,30.25,SW,215,0.0,6.0,57,0.00,,,0.00,Wunderground v.1.13,2013-03-12 02:08:00,
2013-03-11 19:18:00,56.6,41.5,30.24,SW,215,0.0,6.0,57,0.00,,,0.00,Wunderground v.1.13,2013-03-12 02:18:00,
2013-03-11 19:23:00,56.5,41.4,30.24,SW,215,0.0,6.0,57,0.00,,,0.00,Wunderground v.1.13,2013-03-12 02:23:00,
2013-03-11 19:28:00,56.2,41.2,30.24,SW,215,0.0,6.0,57,0.00,,,0.00,Wunderground v.1.13,2013-03-12 02:28:00,
2013-03-11 19:38:00,55.9,41.3,30.24,SW,215,0.0,6.0,58,0.00,,,0.00,Wunderground v.1.13,2013-03-12 02:38:00,
2013-03-11 19:48:00,55.7,41.1,30.24,SW,215,0.0,6.0,58,0.00,,,0.00,Wunderground v.1.13,2013-03-12 02:48:00,
2013-03-11 19:53:00,55.7,40.7,30.24,SW,215,0.0,6.0,57,0.00,,,0.00,Wunderground v.1.13,2013-03-12 02:53:00,
2013-03-11 20:03:00,55.6,40.1,30.24,SW,215,0.0,6.0,56,0.00,,,0.00,Wunderground v.1.13,2013-03-12 03:03:00,
2013-03-11 20:08:00,55.4,40.9,30.24,SW,215,0.0,6.0,58,0.00,,,0.00,Wunderground v.1.13,2013-03-12 03:08:00,
2013-03-11 20:18:00,55.9,40.4,30.23,SW,215,0.0,6.0,56,0.00,,,0.00,Wunderground v.1.13,2013-03-12 03:18:00,
2013-03-11 20:23:00,55.6,40.6,30.23,SW,215,0.0,6.0,57,0.00,,,0.00,Wunderground v.1.13,2013-03-12 03:23:00,
2013-03-11 20:33:00,55.3,40.8,30.23,SW,215,0.0,6.0,58,0.00,,,0.00,Wunderground v.1.13,2013-03-12 03:33:00,
2013-03-11 20:38:00,55.3,40.8,30.23,SSW,209,0.0,6.0,58,0.00,,,0.00,Wunderground v.1.13,2013-03-12 03:38:00,
2013-03-11 20:48:00,55.1,41.0,30.23,SE,139,0.0,6.0,59,0.00,,,0.00,Wunderground v.1.13,2013-03-12 03:48:00,
2013-03-11 20:58:00,55.1,41.0,30.23,ESE,122,1.0,6.0,59,0.00,,,0.00,Wunderground v.1.13,2013-03-12 03:58:00,
2013-03-11 21:03:00,54.8,41.2,30.23,ESE,111,2.0,6.0,60,0.00,,,0.00,Wunderground v.1.13,2013-03-12 04:03:00,
2013-03-11 21:08:00,54.4,41.2,30.24,ESE,109,3.0,3.0,61,0.00,,,0.00,Wunderground v.1.13,2013-03-12 04:08:00,
2013-03-11 21:13:00,54.7,41.5,30.23,ESE,109,3.0,6.0,61,0.00,,,0.00,Wunderground v.1.13,2013-03-12 04:13:00,
2013-03-11 21:18:00,54.8,42.0,30.23,ESE,109,2.0,6.0,62,0.00,,,0.00,Wunderground v.1.13,2013-03-12 04:18:00,
2013-03-11 21:23:00,54.8,42.0,30.23,ESE,109,1.0,1.0,62,0.00,,,0.00,Wunderground v.1.13,2013-03-12 04:23:00,
2013-03-11 21:28:00,54.5,42.2,30.23,ESE,109,0.0,6.0,63,0.00,,,0.00,Wunderground v.1.13,2013-03-12 04:28:00,
2013-03-11 21:33:00,54.4,42.5,30.23,ESE,109,0.0,6.0,64,0.00,,,0.00,Wunderground v.1.13,2013-03-12 04:33:00,
2013-03-11 21:43:00,53.9,42.4,30.23,ESE,109,0.0,6.0,65,0.00,,,0.00,Wunderground v.1.13,2013-03-12 04:43:00,
2013-03-11 21:53:00,54.1,42.6,30.23,ESE,109,0.0,6.0,65,0.00,,,0.00,Wunderground v.1.13,2013-03-12 04:53:00,
2013-03-11 22:03:00,53.6,42.5,30.23,ESE,109,0.0,6.0,66,0.00,,,0.00,Wunderground v.1.13,2013-03-12 05:03:00,
2013-03-11 22:13:00,53.3,42.6,30.24,ESE,109,0.0,6.0,67,0.00,,,0.00,Wunderground v.1.13,2013-03-12 05:13:00,
2013-03-11 22:18:00,53.8,41.9,30.23,ESE,109,0.0,6.0,64,0.00,,,0.00,Wunderground v.1.13,2013-03-12 05:18:00,
2013-03-11 22:23:00,53.9,42.0,30.23,ESE,109,0.0,6.0,64,0.00,,,0.00,Wunderground v.1.13,2013-03-12 05:23:00,
2013-03-11 22:32:00,54.1,41.4,30.23,ESE,109,0.0,6.0,62,0.00,,,0.00,Wunderground v.1.13,2013-03-12 05:32:00,
2013-03-11 22:38:00,54.2,41.0,30.23,ESE,109,0.0,6.0,61,0.00,,,0.00,Wunderground v.1.13,2013-03-12 05:38:00,
2013-03-11 22:48:00,54.1,41.4,30.23,ESE,109,0.0,6.0,62,0.00,,,0.00,Wunderground v.1.13,2013-03-12 05:48:00,
2013-03-11 22:53:00,54.1,41.4,30.23,ESE,109,0.0,6.0,62,0.00,,,0.00,Wunderground v.1.13,2013-03-12 05:53:00,
2013-03-11 23:03:00,53.9,41.2,30.23,ESE,109,0.0,6.0,62,0.00,,,0.00,Wunderground v.1.13,2013-03-12 06:03:00,
2013-03-11 23:08:00,53.6,41.3,30.23,ESE,109,0.0,6.0,63,0.00,,,0.00,Wunderground v.1.13,2013-03-12 06:08:00,
2013-03-11 23:18:00,53.2,41.3,30.23,ESE,109,0.0,6.0,64,0.00,,,0.00,Wunderground v.1.13,2013-03-12 06:18:00,
2013-03-11 23:23:00,53.5,41.2,30.23,ESE,109,0.0,6.0,63,0.00,,,0.00,Wunderground v.1.13,2013-03-12 06:23:00,
2013-03-11 23:33:00,53.9,41.2,30.22,ESE,109,0.0,6.0,62,0.00,,,0.00,Wunderground v.1.13,2013-03-12 06:33:00,
2013-03-11 23:43:00,53.2,41.3,30.22,ESE,109,0.0,6.0,64,0.00,,,0.00,Wunderground v.1.13,2013-03-12 06:43:00,
2013-03-11 23:48:00,52.8,41.4,30.22,ESE,109,0.0,6.0,65,0.00,,,0.00,Wunderground v.1.13,2013-03-12 06:48:00,
2013-03-11 23:53:00,52.6,41.6,30.22,ESE,109,0.0,6.0,66,0.00,,,0.00,Wunderground v.1.13,2013-03-12 06:53:00,